User: anonymous   Login
Location: Unspecified
(43.0000°N, 0.0000°E)
Time: 18:23:41
(UTC+00:00)
Language:

PicSat - Orbit

View from above orbital plane
View from above orbital plane
View from above satellite
View from above satellite

Ground track
Ground track

The orbit data is extracted from the following two-line orbital elements,

1 43131U 18004W   20227.17907546  .00001452  00000-0  60279-4 0  9997
2 43131  97.4456 298.9140 0008563 197.7969 162.2971 15.25451867143899
Epoch (UTC): 14 August 2020 04:17:52
Eccentricity: 0.0008563
inclination: 97.4456°
perigee height: 483 km
apogee height: 495 km
right ascension of ascending node: 298.9140°
argument of perigee: 197.7969°
revolutions per day: 15.25451867
mean anomaly at epoch: 162.2971°
orbit number at epoch: 14389

The dashed part of the orbit path shows where the satellite is in the earth's shadow,  

DLR